When you browse on this site, cookies collect data to enhance your experience and personalize the content and advertising you see.
Visit our Privacy Policy to learn more. By continuing to use the site, you agree to this use of cookies and data.
  • In Latvia
  • List of Countries
  • For 7 days
  • Water Temperature
  • Satellite Maps
  • Weather Map
  • Weather Widgets
  • user-avatar
    Login

    Hourly Weather Encamp

    Today, 24 May, Friday

    Time Temperature Precipitation Wind Pressure Humidity
    00:00 +8°C° 0 mm 0 mps 623 mmHg 91%
    01:00 +7°C° 1.2 mm 0 mps 623 mmHg 93%
    02:00 +7°C° 1.2 mm 0 mps 623 mmHg 94%
    03:00 +7°C° 1.2 mm 0 mps 622 mmHg 95%
    04:00 +7°C° 2.7 mm 0 mps 622 mmHg 95%
    05:00 +8°C° 2.7 mm 1 mps 622 mmHg 95%
    06:00 +8°C° 2.7 mm 1 mps 622 mmHg 96%
    07:00 +7°C° 1.4 mm 1 mps 622 mmHg 95%
    08:00 +7°C° 1.4 mm 1 mps 622 mmHg 94%
    09:00 +7°C° 1.4 mm 1 mps 622 mmHg 93%
    10:00 +8°C° 0.6 mm 1 mps 622 mmHg 92%
    11:00 +8°C° 0.6 mm 1 mps 623 mmHg 90%
    12:00 +8°C° 0.6 mm 1 mps 623 mmHg 88%
    13:00 +9°C° 0.3 mm 1 mps 623 mmHg 87%
    14:00 +8°C° 0.3 mm 2 mps 623 mmHg 85%
    15:00 +8°C° 0.3 mm 2 mps 622 mmHg 83%
    16:00 +8°C° 0.4 mm 2 mps 622 mmHg 86%
    17:00 +7°C° 0.4 mm 2 mps 622 mmHg 89%
    18:00 +7°C° 0.4 mm 2 mps 622 mmHg 92%
    19:00 +6°C° 1 mm 2 mps 622 mmHg 93%
    20:00 +6°C° 1 mm 2 mps 622 mmHg 94%
    21:00 +6°C° 1 mm 2 mps 622 mmHg 96%
    22:00 +6°C° 1.5 mm 2 mps 622 mmHg 96%
    23:00 +6°C° 1.5 mm 2 mps 622 mmHg 96%

    Tomorrow, 25 May, Saturday

    Time Temperature Precipitation Wind Pressure Humidity
    00:00 +6°C° 1.5 mm 2 mps 622 mmHg 97%
    01:00 +6°C° 1.5 mm 2 mps 622 mmHg 97%
    02:00 +5°C° 1.5 mm 2 mps 622 mmHg 96%
    03:00 +5°C° 1.5 mm 2 mps 621 mmHg 96%
    04:00 +5°C° 2 mm 2 mps 622 mmHg 96%
    05:00 +5°C° 2 mm 2 mps 622 mmHg 96%
    06:00 +4°C° 2 mm 3 mps 622 mmHg 96%
    07:00 +5°C° 1.4 mm 3 mps 622 mmHg 95%
    08:00 +5°C° 1.4 mm 3 mps 622 mmHg 94%
    09:00 +5°C° 1.4 mm 3 mps 622 mmHg 93%
    10:00 +5°C° 0.8 mm 3 mps 622 mmHg 91%
    11:00 +5°C° 0.8 mm 3 mps 623 mmHg 89%
    12:00 +7°C° 0.8 mm 3 mps 623 mmHg 87%
    13:00 +8°C° 0.1 mm 3 mps 623 mmHg 83%
    14:00 +9°C° 0.1 mm 3 mps 623 mmHg 79%
    15:00 +10°C° 0.1 mm 3 mps 623 mmHg 74%
    16:00 +9°C° 0.1 mm 3 mps 623 mmHg 76%
    17:00 +8°C° 0.1 mm 3 mps 623 mmHg 78%
    18:00 +8°C° 0.1 mm 3 mps 623 mmHg 80%
    19:00 +7°C° 0 mm 3 mps 623 mmHg 83%
    20:00 +5°C° 0 mm 3 mps 623 mmHg 87%
    21:00 +4°C° 0 mm 3 mps 623 mmHg 90%
    22:00 +4°C° 0 mm 3 mps 623 mmHg 90%
    23:00 +4°C° 0 mm 3 mps 623 mmHg 91%

    Day after tomorrow, 26 May, Sunday

    Time Temperature Precipitation Wind Pressure Humidity
    00:00 +4°C° 0 mm 3 mps 623 mmHg 92%
    01:00 +4°C° 0 mm 3 mps 623 mmHg 91%
    02:00 +4°C° 0 mm 3 mps 623 mmHg 91%
    03:00 +4°C° 0 mm 3 mps 622 mmHg 91%
    04:00 +4°C° 0 mm 3 mps 623 mmHg 89%
    05:00 +4°C° 0 mm 3 mps 623 mmHg 87%
    06:00 +5°C° 0 mm 3 mps 623 mmHg 85%
    07:00 +7°C° 0.1 mm 3 mps 624 mmHg 81%
    08:00 +8°C° 0.1 mm 3 mps 624 mmHg 77%
    09:00 +9°C° 0.1 mm 3 mps 624 mmHg 73%
    10:00 +9°C° 0.2 mm 3 mps 624 mmHg 73%
    11:00 +9°C° 0.2 mm 3 mps 624 mmHg 73%
    12:00 +9°C° 0.2 mm 3 mps 624 mmHg 73%
    13:00 +8°C° 0 mm 4 mps 624 mmHg 69%
    14:00 +10°C° 0 mm 4 mps 624 mmHg 65%
    15:00 +11°C° 0 mm 4 mps 624 mmHg 61%
    16:00 +10°C° 0 mm 3 mps 624 mmHg 63%
    17:00 +10°C° 0 mm 3 mps 623 mmHg 65%
    18:00 +9°C° 0 mm 3 mps 623 mmHg 67%
    19:00 +8°C° 0 mm 3 mps 623 mmHg 75%
    20:00 +6°C° 0 mm 2 mps 623 mmHg 83%
    21:00 +5°C° 0 mm 2 mps 622 mmHg 90%
    22:00 +5°C° 0 mm 2 mps 622 mmHg 90%
    23:00 +6°C° 0 mm 2 mps 622 mmHg 90%

    27 May, Monday

    Time Temperature Precipitation Wind Pressure Humidity
    00:00 +6°C° 0 mm 2 mps 622 mmHg 90%
    01:00 +6°C° 0 mm 2 mps 622 mmHg 91%
    02:00 +6°C° 0 mm 2 mps 622 mmHg 92%
    03:00 +6°C° 0 mm 2 mps 622 mmHg 93%
    04:00 +6°C° 0 mm 2 mps 622 mmHg 90%
    05:00 +6°C° 0 mm 2 mps 622 mmHg 88%
    06:00 +7°C° 0 mm 2 mps 622 mmHg 86%
    07:00 +9°C° 0 mm 2 mps 623 mmHg 77%
    08:00 +12°C° 0 mm 2 mps 624 mmHg 68%
    09:00 +14°C° 0 mm 2 mps 625 mmHg 58%
    10:00 +15°C° 0 mm 2 mps 625 mmHg 55%
    11:00 +16°C° 0 mm 2 mps 625 mmHg 51%
    12:00 +17°C° 0 mm 2 mps 625 mmHg 47%
    13:00 +17°C° 0.1 mm 2 mps 625 mmHg 51%
    14:00 +16°C° 0.1 mm 2 mps 624 mmHg 55%
    15:00 +16°C° 0.1 mm 2 mps 624 mmHg 58%
    16:00 +14°C° 0.2 mm 2 mps 623 mmHg 67%
    17:00 +13°C° 0.2 mm 2 mps 622 mmHg 76%
    18:00 +10°C° 0.2 mm 2 mps 622 mmHg 85%
    19:00 +9°C° 0 mm 2 mps 622 mmHg 88%
    20:00 +8°C° 0 mm 2 mps 622 mmHg 90%
    21:00 +7°C° 0 mm 2 mps 621 mmHg 93%
    22:00 +7°C° 0 mm 2 mps 621 mmHg 92%
    23:00 +7°C° 0 mm 1 mps 621 mmHg 92%

    28 May, Tuesday

    Time Temperature Precipitation Wind Pressure Humidity
    00:00 +6°C° 0 mm 1 mps 620 mmHg 91%
    01:00 +6°C° 0 mm 1 mps 620 mmHg 90%
    02:00 +6°C° 0 mm 1 mps 620 mmHg 88%
    03:00 +5°C° 0 mm 2 mps 620 mmHg 86%
    04:00 +6°C° 0 mm 2 mps 620 mmHg 87%
    05:00 +6°C° 0 mm 2 mps 620 mmHg 87%
    06:00 +7°C° 0 mm 2 mps 620 mmHg 87%
    07:00 +7°C° 0.1 mm 2 mps 620 mmHg 84%
    08:00 +9°C° 0.1 mm 1 mps 621 mmHg 81%
    09:00 +10°C° 0.1 mm 1 mps 621 mmHg 78%
    10:00 +10°C° 0.1 mm 1 mps 621 mmHg 80%
    11:00 +9°C° 0.1 mm 1 mps 620 mmHg 81%
    12:00 +8°C° 0.1 mm 2 mps 620 mmHg 83%
    13:00 +8°C° 0.9 mm 2 mps 620 mmHg 86%
    14:00 +7°C° 0.9 mm 2 mps 620 mmHg 89%
    15:00 +7°C° 0.9 mm 2 mps 619 mmHg 92%
    16:00 +5°C° 1.1 mm 3 mps 619 mmHg 92%
    17:00 +4°C° 1.1 mm 3 mps 619 mmHg 93%
    18:00 +4°C° 1.1 mm 3 mps 619 mmHg 93%
    19:00 +3°C° 0.5 mm 3 mps 619 mmHg 92%
    20:00 +2°C° 0.5 mm 3 mps 620 mmHg 91%
    21:00 +1°C° 0.5 mm 3 mps 620 mmHg 90%
    22:00 0°C° 0.1 mm 3 mps 619 mmHg 90%
    23:00 -1°C° 0.1 mm 3 mps 619 mmHg 90%

    29 May, Wednesday

    Time Temperature Precipitation Wind Pressure Humidity
    00:00 -2°C° 0.1 mm 3 mps 619 mmHg 91%
    01:00 -2°C° 0 mm 3 mps 619 mmHg 91%
    02:00 -2°C° 0 mm 2 mps 619 mmHg 92%
    03:00 -2°C° 0 mm 2 mps 619 mmHg 92%
    04:00 -1°C° 0 mm 2 mps 620 mmHg 89%
    05:00 +1°C° 0 mm 2 mps 621 mmHg 86%
    06:00 +1°C° 0 mm 2 mps 621 mmHg 83%
    07:00 +2°C° 0 mm 3 mps 622 mmHg 73%
    08:00 +4°C° 0 mm 3 mps 623 mmHg 63%
    09:00 +7°C° 0 mm 3 mps 624 mmHg 53%
    10:00 +8°C° 0 mm 3 mps 625 mmHg 49%
    11:00 +10°C° 0 mm 3 mps 625 mmHg 45%
    12:00 +11°C° 0 mm 3 mps 626 mmHg 41%
    13:00 +11°C° 0 mm 3 mps 626 mmHg 41%
    14:00 +11°C° 0 mm 3 mps 626 mmHg 41%
    15:00 +11°C° 0 mm 3 mps 626 mmHg 41%
    16:00 +10°C° 0 mm 3 mps 626 mmHg 48%
    17:00 +9°C° 0 mm 3 mps 625 mmHg 54%
    18:00 +8°C° 0 mm 3 mps 625 mmHg 60%
    19:00 +6°C° 0 mm 2 mps 625 mmHg 70%
    20:00 +4°C° 0 mm 2 mps 625 mmHg 80%
    21:00 +2°C° 0 mm 2 mps 624 mmHg 90%
    22:00 +1°C° 0 mm 2 mps 625 mmHg 89%
    23:00 +1°C° 0 mm 2 mps 625 mmHg 88%
    Show more